Location: Lourdes
(43.1000°N, 0.0500°W)
Time: 12:15:11
(UTC+00:00)

NOAA 11 - Pass Details

Date: 30 November 2020
Orbit: 833 x 849 km, 98.4° (Epoch: 26 January)

Event Time Altitude Azimuth Distance (km) Brightness Sun altitude
Rises 17:55:01 0° 170° (S) 3,366 7.4 -15.7°
Reaches altitude 10° 17:57:22 10° 173° (S) 2,437 6.7 -16.1°
Maximum altitude 18:02:46 73° 257° (WSW) 877 4.4 -17.1°
Drops below altitude 10° 18:08:13 10° 343° (NNW) 2,462 6.7 -18.1°
Sets 18:10:37 0° 345° (NNW) 3,402 7.4 -18.5°
